Location: Guayaquil
(2.1667°S, 79.9000°W)
Time: 19:34:24
(UTC-05:00)

N. Korean satellite - Visible Passes

Search period start: 19 August 2017 00:00
Search period end: 29 August 2017 00:00
Orbit: 462 x 515 km, 97.2° (Epoch: 19 August)

Date Brightness Start Highest point End Pass type
(mag) Time Alt. Az. Time Alt. Az. Time Alt. Az.
19 Aug 9.5 19:37:31 10° SW 19:39:42 16° WSW 19:41:55 10° WNW visible
20 Aug 8.0 19:13:26 10° S 19:16:42 38° W 19:19:59 10° NNW visible
21 Aug 6.4 18:50:12 10° SSE 18:53:42 78° ENE 18:57:12 10° N visible
23 Aug 9.6 19:38:50 10° SW 19:40:56 15° W 19:43:03 10° WNW visible
24 Aug 8.2 19:14:39 10° S 19:17:55 36° W 19:21:12 10° NNW visible
25 Aug 6.5 18:51:21 10° SSE 18:54:53 83° ENE 18:58:27 10° N visible
27 Aug 9.7 19:40:05 10° SW 19:42:06 15° WSW 19:44:09 10° WNW visible
28 Aug 10.4 05:58:04 10° E 05:58:34 10° ESE 05:59:04 10° ESE visible
28 Aug 8.3 19:15:50 10° SSW 19:19:05 34° W 19:22:22 10° NW visible
